113 Sun Mar 24 15:14:17 EDT 2019 receiving avg 861 msg/sec near East Meadow, NY Cruising Descending Ascending Mouse over a plane for info. Click for FlightAware details

VerticaAircraft and message statistics by day, by hour, by minute. Updates every 5 minutes. The most recent entry may show partial data for the current time period.

day aircraft_day messages_day
2019-03-17 3354 52968950
2019-03-18 3208 52856259
2019-03-19 3141 48777158
2019-03-20 2319 27087621
2019-03-21 3148 51727213
2019-03-22 3085 55687295
2019-03-23 2767 47431025
2019-03-24 2426 26126587
day hour aircraft_hour messages_hour
2019-03-23 11:00:00 438 2728956
2019-03-23 12:00:00 401 2581706
2019-03-23 13:00:00 451 2741951
2019-03-23 14:00:00 479 2843576
2019-03-23 15:00:00 516 3004026
2019-03-23 16:00:00 512 2944854
2019-03-23 17:00:00 492 2721710
2019-03-23 18:00:00 453 2618057
2019-03-23 19:00:00 395 2549427
2019-03-23 20:00:00 362 2374359
2019-03-23 21:00:00 324 2208098
2019-03-23 22:00:00 260 1749159
2019-03-23 23:00:00 202 1428363
2019-03-24 00:00:00 119 866799
2019-03-24 01:00:00 61 384868
2019-03-24 02:00:00 36 235478
2019-03-24 03:00:00 23 113788
2019-03-24 04:00:00 44 179592
2019-03-24 05:00:00 87 494657
2019-03-24 06:00:00 270 1834340
2019-03-24 07:00:00 333 2016716
2019-03-24 08:00:00 450 2541506
2019-03-24 09:00:00 528 2630225
2019-03-24 10:00:00 554 2735595
2019-03-24 11:00:00 559 2807583
2019-03-24 12:00:00 613 2641283
2019-03-24 13:00:00 584 2935662
2019-03-24 14:00:00 637 3194393
2019-03-24 15:00:00 274 514102
today_minute aircraft_minute messages_minute avg_msg_second
14:40:00 212 55142 919
14:41:00 203 56072 934
14:42:00 198 54934 915
14:43:00 202 55312 921
14:44:00 202 54802 913
14:45:00 204 55782 929
14:46:00 194 54432 907
14:47:00 198 54413 906
14:48:00 193 53497 891
14:49:00 189 53924 898
14:50:00 189 54876 914
14:51:00 198 51861 864
14:52:00 194 47482 791
14:53:00 192 46490 774
14:54:00 193 47538 792
14:55:00 188 48427 807
14:56:00 196 50120 835
14:57:00 189 49626 827
14:58:00 189 50492 841
14:59:00 187 51308 855
15:00:00 183 51457 857
15:01:00 189 51299 854
15:02:00 190 49311 821
15:03:00 176 51633 860
15:04:00 176 50605 843
15:05:00 172 52104 868
15:06:00 179 48153 802
15:07:00 173 50939 848
15:08:00 169 53187 886
15:09:00 177 55550 925
15:10:00 168 37855 630

METAR (METeorological Aerodrome Report) weather reports are updated hourly.

location Time weather Temp Dew Point RH% Wind Wind Chill
Farmingdale - Republic Airport NY Last Updated on Mar 24 2019 1:53 pm EDT Fair 53.0 F (11.7 C) 21.0 F (-6.1 C) 28 from the South at 15.0 gusting to 20.7 MPH (13 gusting to 18 KT) 48 F (9 C)
Islip Long Island Mac Arthur Airport NY Last Updated on Mar 24 2019 1:56 pm EDT Mostly Cloudy 52.0 F (11.1 C) 21.0 F (-6.1 C) 30 47  
New York Kennedy International Airport NY Last Updated on Mar 24 2019 1:51 pm EDT Mostly Cloudy 54.0 F (12.2 C) 21.0 F (-6.1 C) 28 49  
New York La Guardia Airport NY Last Updated on Mar 24 2019 1:51 pm EDT Mostly Cloudy 57.0 F (13.9 C) 5.0 F (-15.0 C) 12 55  
Newark Newark International Airport NJ Last Updated on Mar 24 2019 1:51 pm EDT Mostly Cloudy 59.0 F (15.0 C) 12.0 F (-11.1 C) 15 from the West at 17.3 gusting to 25.3 MPH (15 gusting to 22 KT) 56 F (13 C)
Teterboro Teterboro Airport NJ Last Updated on Mar 24 2019 1:51 pm EDT Fair 58.0 F (14.4 C) 17.1 F (-8.3 C) 20 from the West at 11.5 gusting to 20.7 MPH (10 gusting to 18 KT) 56 F (13 C)
White Plains - Westchester County Airport NY Last Updated on Mar 24 2019 1:56 pm EDT Fair 55.0 F (12.8 C) 10.9 F (-11.7 C) 17 from the Southwest at 9.2 gusting to 23.0 MPH (8 gusting to 20 KT) 52 F (11 C)
NWS Radar